Weather History for Saturna Island, BC

Change the Weather History Date:

Thursday, February 28, 2013

  Actual Average Record
Temperature  
Mean Temperature 44 °F -  
Max Temperature 48 °F - - ()
Min Temperature 41 °F - - ()
Degree Days  
Heating Degree Days 20    
Moisture  
Dew Point 41 °F    
Average Humidity 90    
Maximum Humidity 95    
Minimum Humidity 82    
Precipitation  
Precipitation 0.31 in - - ()
Sea Level Pressure  
Sea Level Pressure 30.22 in    
Wind  
Wind Speed 10 mph ()    
Max Wind Speed 17 mph    
Max Gust Speed -    
T = Trace of Precipitation, MM = Missing Value Source: Averaged Metar Reports

Daily Weather History Graph

Daily Weather History Graph

Search for Another Location

Airport:

Trip Planner

Search our weather history database for the weather conditions in past years. The results will help you decide how hot, cold, wet, or windy it might be!

Date:

Astronomy

Feb. 28, 2013 Rise Set
Actual Time 6:55 AM PST 5:54 PM PST
Civil Twilight 6:23 AM PST 6:26 PM PST
Nautical Twilight 5:47 AM PST 7:02 PM PST
Astronomical Twilight 5:10 AM PST 7:39 PM PST
Moon 9:51 PM PST (2/28) 7:48 AM PST (2/28)
Length of Visible Light 12h 02m
Length of Day
10h 59m
Waning Gibbous, 90% of the Moon is Illuminated
Feb 28
Waning Gibbous
Mar 4
Last Quarter
Mar 11
New
Mar 19
First Quarter
Mar 27
Full

Hourly Weather History & Observations

Time (PST) Temp. Windchill Dew Point Humidity Pressure Visibility Wind Dir Wind Speed Gust Speed Precip Events Conditions
12:00 AM 41.5 °F 36.4 °F 37.9 °F 87% 30.27 in - East 8.1 mph - N/A   Unknown
1:00 AM 42.4 °F 37.5 °F 38.1 °F 85% 30.27 in - ESE 8.1 mph - N/A   Unknown
2:00 AM 42.6 °F 36.3 °F 38.3 °F 85% 30.27 in - East 11.5 mph - N/A   Unknown
3:00 AM 42.4 °F 36.1 °F 39.0 °F 88% 30.24 in - East 11.5 mph - N/A   Unknown
4:00 AM 42 °F - 38 °F 82% 30.23 in - East 10.4 mph - -  
4:00 AM 41.9 °F 35.9 °F 38.3 °F 87% 30.23 in - East 10.4 mph - N/A   Unknown
5:00 AM 41.5 °F 34.2 °F 37.2 °F 85% 30.23 in - East 13.8 mph - N/A   Unknown
6:00 AM 41.9 °F 34.3 °F 37.9 °F 86% 30.22 in - ESE 15.0 mph - N/A   Unknown
7:00 AM 41.5 °F 35.0 °F 38.1 °F 88% 30.20 in - ESE 11.5 mph - N/A   Unknown
8:00 AM 42.1 °F 33.9 °F 38.1 °F 86% 30.20 in - East 17.3 mph - N/A   Unknown
9:00 AM 41.7 °F 34.1 °F 38.7 °F 89% 30.19 in - East 15.0 mph - 0.02 in   Unknown
10:00 AM 42 °F - 39 °F 84% 30.19 in - East 15.0 mph - -  
10:00 AM 41.7 °F 34.1 °F 38.8 °F 89% 30.19 in - East 15.0 mph - 0.04 in   Unknown
11:00 AM 41.0 °F 33.9 °F 38.7 °F 91% 30.19 in - East 12.7 mph - 0.06 in   Unknown
12:00 PM 41.2 °F 33.4 °F 39.2 °F 93% 30.21 in - East 15.0 mph - 0.07 in   Unknown
1:00 PM 41.5 °F 34.2 °F 39.7 °F 93% 30.22 in - East 13.8 mph - 0.02 in   Unknown
2:00 PM 41.7 °F 34.1 °F 39.9 °F 93% 30.22 in - East 15.0 mph - N/A   Unknown
3:00 PM 42.4 °F 35.7 °F 40.6 °F 93% 30.22 in - East 12.7 mph - N/A   Unknown
4:00 PM 45 °F - 43 °F 90% 30.20 in - SE 10.4 mph - -  
4:00 PM 44.8 °F 39.4 °F 43.0 °F 93% 30.20 in - SE 10.4 mph - N/A   Unknown
5:00 PM 46.8 °F - 45.0 °F 93% 30.18 in - South 10.4 mph - 0.02 in   Unknown
6:00 PM 46.8 °F - 45.1 °F 94% 30.18 in - SSW 10.4 mph - 0.05 in   Unknown
7:00 PM 46.9 °F - 45.3 °F 94% 30.20 in - WNW 3.5 mph - 0.02 in   Unknown
8:00 PM 46.8 °F - 45.3 °F 95% 30.21 in - North 1.2 mph - 0.09 in   Unknown
9:00 PM 46.6 °F - 45.1 °F 95% 30.22 in - SW 2.3 mph - 0.09 in   Unknown
10:00 PM 48 °F - 47 °F 93% 30.22 in - SSE 9.2 mph - -  
10:00 PM 48.0 °F - 46.6 °F 95% 30.22 in - SSE 9.2 mph - 0.02 in   Unknown
11:00 PM 48.2 °F - 46.4 °F 93% 30.23 in - SSW 4.6 mph - 0.04 in   Unknown